Tracking 29892 objects as of 21-Nov-2024
HD Live streaming from Space Station
objects crossing your sky now

STARLINK-30400

Track STARLINK-30400 now!
10-day predictions
STARLINK-30400 is classified as:


NORAD ID: 57937
Int'l Code: 2023-148C
Perigee: 481.0 km
Apogee: 483.5 km
Inclination: 53.2 °
Period: 94.1 minutes
Semi major axis: 6853 km
RCS: Unknown
Launch date: September 25, 2023
Source: United States (US)
Launch site: AIR FORCE WESTERN TEST RANGE (AFWTR)
Your satellite tracking list
Your tracking list is empty




NASA's NSSDC Master Catalog

Two Line Element Set (TLE):
1 57937U 23148C   24325.31143977  .00003817  00000-0  14079-3 0  9993
2 57937  53.1594  67.6420 0001817  50.4019 309.7142 15.30232742 65793
Source of the keplerian elements: AFSPC